Orangeburg, SC

3:04 PM EST on December 11, 2017 (GMT -0500)
Orangeburg Municipal

Weather History for KOGB - August, 2014

Change the Weather History Date:

Monday, August 11, 2014

  Actual Average Record
Temperature  
Mean Temperature 82 °F 81 °F  
Max Temperature 90 °F 90 °F 99 °F (1983)
Min Temperature 74 °F 71 °F 61 °F (1954)
Degree Days  
Heating Degree Days 0 0  
Month to date heating degree days 0 0  
Since 1 June heating degree days 0 1  
Since 1 July heating degree days 0 0  
Cooling Degree Days 17 16  
Month to date cooling degree days 154 180  
Year to date cooling degree days 1457 1402  
Since 1 June cooling degree days 1102 1099  
Growing Degree Days 31 (Base 50)    
Moisture  
Dew Point 72 °F    
Average Humidity 83    
Maximum Humidity 94    
Minimum Humidity 59    
Precipitation  
Precipitation 0.62 in 0.18 in 4.24 in (1970)
Month to date precipitation 2.75 1.96  
Year to date precipitation 33.87 29.99  
Sea Level Pressure  
Sea Level Pressure 29.98 in    
Wind  
Wind Speed 3 mph (ENE)    
Max Wind Speed 15 mph    
Max Gust Speed 21 mph    
Visibility 8 miles    
Events Rain , Thunderstorm    
T = Trace of Precipitation, MM = Missing Value Source: NWS Daily Summary

Daily Weather History Graph

Daily Weather History Graph

Search for Another Location

Airport or City:

Trip Planner

Search our weather history database for the weather conditions in past years. The results will help you decide how hot, cold, wet, or windy it might be!

Date:

Astronomy

Aug. 11, 2014 Rise Set
Actual Time 6:43 AM EDT 8:13 PM EDT
Civil Twilight 6:16 AM EDT 8:40 PM EDT
Nautical Twilight 5:44 AM EDT 9:11 PM EDT
Astronomical Twilight 5:11 AM EDT 9:45 PM EDT
Moon 8:48 PM EDT 7:40 AM EDT
Length of Visible Light 14h 23m
Length of Day
13h 30m
Full, 99% of the Moon is Illuminated
Aug 11
Full
Aug 17
Last Quarter
Aug 25
New
Sep 2
First Quarter
Sep 8
Full

Hourly Weather History & Observations

Time (EDT) Temp. Heat Index Dew Point Humidity Pressure Visibility Wind Dir Wind Speed Gust Speed Precip Events Conditions
12:08 AM 73.9 °F - 72.0 °F 93% 30.02 in 10.0 mi NNE 3.5 mph - N/A   Scattered Clouds
12:53 AM 73.9 °F - 72.0 °F 93% 30.02 in 10.0 mi ENE 4.6 mph - N/A   Scattered Clouds
12:56 AM 73.9 °F - 72.0 °F 93% 30.03 in 10.0 mi ENE 5.8 mph - N/A   Mostly Cloudy
1:26 AM 73.9 °F - 72.0 °F 93% 30.02 in 10.0 mi Calm Calm - N/A   Partly Cloudy
1:53 AM 73.9 °F - 72.0 °F 93% 30.01 in 9.0 mi Calm Calm - N/A   Mostly Cloudy
2:15 AM 73.9 °F - 72.0 °F 93% 30.02 in 9.0 mi ENE 3.5 mph - N/A   Mostly Cloudy
2:24 AM 73.9 °F - 72.0 °F 93% 30.01 in 9.0 mi East 4.6 mph - N/A   Mostly Cloudy
2:53 AM 73.9 °F - 72.0 °F 93% 30.00 in 7.0 mi ENE 4.6 mph - N/A   Overcast
3:53 AM 73.9 °F - 72.0 °F 93% 29.98 in 2.5 mi Calm Calm - N/A   Overcast
4:16 AM 73.9 °F - 72.0 °F 93% 29.99 in 4.0 mi NE 3.5 mph - N/A   Overcast
4:53 AM 73.9 °F - 72.0 °F 93% 29.99 in 4.0 mi ENE 3.5 mph - N/A   Overcast
5:53 AM 73.9 °F - 72.0 °F 93% 29.99 in 6.0 mi NNE 4.6 mph - N/A   Overcast
6:53 AM 73.9 °F - 72.0 °F 93% 29.99 in 6.0 mi NE 5.8 mph - N/A   Overcast
7:37 AM 75.0 °F - 72.0 °F 90% 30.01 in 1.8 mi ENE 4.6 mph - N/A   Overcast
7:53 AM 75.0 °F - 72.0 °F 90% 30.01 in 2.0 mi ENE 4.6 mph - N/A   Overcast
8:04 AM 75.0 °F - 72.0 °F 90% 30.02 in 4.0 mi ENE 3.5 mph - N/A   Overcast
8:53 AM 75.9 °F - 73.0 °F 91% 30.01 in 8.0 mi ENE 4.6 mph - N/A   Overcast
9:08 AM 75.9 °F - 73.0 °F 91% 30.02 in 8.0 mi East 3.5 mph - N/A   Overcast
9:53 AM 77.0 °F - 73.0 °F 88% 30.01 in 10.0 mi Calm Calm - N/A   Overcast
10:08 AM 78.1 °F - 73.0 °F 84% 30.02 in 10.0 mi Calm Calm - N/A   Overcast
10:16 AM 78.1 °F - 73.0 °F 84% 30.02 in 10.0 mi East 3.5 mph - N/A   Overcast
10:51 AM 80.6 °F 85.4 °F 73.4 °F 79% 30.03 in 10.0 mi NE 3.5 mph - N/A   Overcast
10:53 AM 80.1 °F 83.8 °F 72.0 °F 76% 30.02 in 10.0 mi NNE 3.5 mph - N/A   Overcast
11:05 AM 80.1 °F 83.8 °F 72.0 °F 76% 30.02 in 10.0 mi Calm Calm - N/A   Overcast
11:22 AM 80.1 °F 83.6 °F 71.1 °F 74% 30.02 in 10.0 mi Calm Calm - N/A   Partly Cloudy
11:53 AM 81.0 °F 85.2 °F 72.0 °F 74% 30.01 in 10.0 mi WSW 3.5 mph - N/A   Mostly Cloudy
12:53 PM 84.0 °F 89.0 °F 71.1 °F 65% 30.00 in 10.0 mi Calm Calm - N/A   Overcast
1:46 PM 87.1 °F 93.6 °F 72.0 °F 61% 29.98 in 10.0 mi Variable 3.5 mph - N/A   Mostly Cloudy
1:53 PM 87.1 °F 94.5 °F 73.0 °F 63% 29.97 in 10.0 mi NE 5.8 mph - N/A   Mostly Cloudy
2:06 PM 87.1 °F 93.6 °F 72.0 °F 61% 29.97 in 10.0 mi Variable 3.5 mph - N/A   Mostly Cloudy
2:53 PM 89.1 °F 97.0 °F 73.0 °F 59% 29.94 in 10.0 mi NNE 8.1 mph - N/A   Mostly Cloudy
3:53 PM 87.1 °F 93.6 °F 72.0 °F 61% 29.92 in 10.0 mi Calm Calm - N/A   Partly Cloudy
4:53 PM 88.0 °F 93.8 °F 71.1 °F 57% 29.91 in 10.0 mi Calm Calm - N/A   Scattered Clouds
5:53 PM 87.1 °F 93.6 °F 72.0 °F 61% 29.91 in 10.0 mi ESE 3.5 mph - N/A   Mostly Cloudy
6:53 PM 87.1 °F 93.6 °F 72.0 °F 61% 29.90 in 10.0 mi ESE 3.5 mph - N/A   Mostly Cloudy
7:53 PM 80.1 °F 84.2 °F 73.0 °F 79% 29.92 in 1.8 mi Variable 5.8 mph - 0.20 in Rain Light Rain
7:55 PM 78.1 °F - 73.0 °F 84% 29.92 in 0.8 mi ENE 9.2 mph - 0.15 in Rain Heavy Rain
8:10 PM 77.0 °F - 72.0 °F 84% 29.93 in 1.5 mi Variable 5.8 mph - 0.42 in Rain , Thunderstorm Light Rain
8:12 PM 77.0 °F - 72.0 °F 84% 29.93 in 3.0 mi East 6.9 mph - 0.42 in Rain , Thunderstorm Light Rain
8:16 PM 77.0 °F - 72.0 °F 84% 29.92 in 10.0 mi East 6.9 mph - 0.42 in Rain , Thunderstorm Light Thunderstorms and Rain
8:53 PM 77.0 °F - 73.0 °F 88% 29.92 in 10.0 mi Calm Calm - 0.42 in   Mostly Cloudy
9:00 PM 77.0 °F - 73.0 °F 88% 29.93 in 10.0 mi SSW 3.5 mph - N/A Thunderstorm Mostly Cloudy
9:28 PM 75.9 °F - 73.0 °F 91% 29.93 in 10.0 mi NNE 5.8 mph - N/A   Scattered Clouds
9:53 PM 75.9 °F - 73.9 °F 94% 29.93 in 9.0 mi South 4.6 mph - N/A   Mostly Cloudy
10:53 PM 75.9 °F - 73.9 °F 94% 29.93 in 8.0 mi Calm Calm - N/A   Mostly Cloudy
11:53 PM 75.9 °F - 73.0 °F 91% 29.93 in 7.0 mi Calm Calm - N/A   Clear